| time (UTC) | temp C | wind direction | speed KPH | gust KPH | rain 1hr cm | rain 24hr cm | rain mn cm | humidity % | barometer mb |
| 20260510161608 | 26 | 196 | 1.6 | 6.4 | 0.00 | 0.00 | 0.00 | 45 | 1014.4 |
| 20260510160134 | 26 | 217 | 0.0 | 6.4 | 0.00 | 0.00 | 0.00 | 46 | 1014.5 |
| 20260510154603 | 26 | 225 | 0.0 | 8.0 | 0.00 | 0.00 | 0.00 | 48 | 1014.5 |
| 20260510153051 | 26 | 232 | 0.0 | 3.2 | 0.00 | 0.00 | 0.00 | 49 | 1014.6 |
| 20260510151548 | 25 | 219 | 1.6 | 9.7 | 0.00 | 0.00 | 0.00 | 54 | 1014.6 |
| 20260510150044 | 23 | 223 | 1.6 | 6.4 | 0.00 | 0.00 | 0.00 | 55 | 1014.7 |
| 20260510144539 | 23 | 176 | 0.0 | 4.8 | 0.00 | 0.00 | 0.00 | 59 | 1014.6 |
| 20260510143039 | 22 | 316 | 0.0 | 4.8 | 0.00 | 0.00 | 0.00 | 58 | 1014.5 |
| 20260510141531 | 21 | 228 | 0.0 | 6.4 | 0.00 | 0.00 | 0.00 | 61 | 1014.4 |
| 20260510140027 | 21 | 249 | 1.6 | 6.4 | 0.00 | 0.00 | 0.00 | 64 | 1014.4 |
| 20260510134524 | 20 | 46 | 0.0 | 8.0 | 0.00 | 0.00 | 0.00 | 71 | 1014.4 |
| 20260510133022 | 18 | 157 | 0.0 | 1.6 | 0.00 | 0.00 | 0.00 | 78 | 1014.3 |
| 20260510131515 | 17 | 198 | 3.2 | 6.4 | 0.00 | 0.00 | 0.00 | 84 | 1014.5 |
| 20260510130013 | 16 | 13 | 0.0 | 4.8 | 0.00 | 0.00 | 0.00 | 90 | 1014.3 |
| 20260510124512 | 15 | 58 | 0.0 | 3.2 | 0.00 | 0.00 | 0.00 | 98 | 1014.2 |
| 20260510123013 | 14 | 40 | 0.0 | 3.2 | 0.00 | 0.00 | 0.00 | 100 | 1014.2 |
| 20260510121509 | 13 | 270 | 0.0 | 1.6 | 0.00 | 0.00 | 0.00 | 100 | 1013.9 |
| 20260510120008 | 13 | 270 | 0.0 | 0.0 | 0.00 | 0.00 | 0.00 | 100 | 1013.7 |
| 20260510114507 | 11 | 270 | 0.0 | 0.0 | 0.00 | 0.00 | 0.00 | 99 | 1013.6 |
| 20260510113005 | 11 | 270 | 0.0 | 0.0 | 0.00 | 0.00 | 0.00 | 99 | 1013.4 |
| 20260510111502 | 10 | 270 | 0.0 | 0.0 | 0.00 | 0.00 | 0.00 | 98 | 1013.2 |
| 20260510110101 | 10 | 270 | 0.0 | 0.0 | 0.00 | 0.00 | 0.00 | 97 | 1013.1 |
| 20260510104603 | 10 | 270 | 0.0 | 0.0 | 0.00 | 0.00 | 0.00 | 97 | 1013.0 |
| 20260510103057 | 11 | 270 | 0.0 | 1.6 | 0.00 | 0.00 | 0.00 | 97 | 1012.7 |
| 20260510101555 | 11 | 270 | 0.0 | 0.0 | 0.00 | 0.00 | 0.00 | 97 | 1012.7 |
| 20260510100054 | 11 | 270 | 0.0 | 0.0 | 0.00 | 0.00 | 0.00 | 97 | 1012.4 |
| 20260510094552 | 11 | 270 | 0.0 | 0.0 | 0.00 | 0.00 | 0.00 | 97 | 1012.1 |
| 20260510093101 | 11 | 270 | 0.0 | 0.0 | 0.00 | 0.00 | 0.00 | 96 | 1011.8 |
| 20260510091545 | 12 | 270 | 0.0 | 0.0 | 0.00 | 0.00 | 0.00 | 96 | 1012.0 |
| 20260510090053 | 12 | 270 | 0.0 | 1.6 | 0.00 | 0.00 | 0.00 | 96 | 1011.9 |
| 20260510084541 | 12 | 190 | 0.0 | 1.6 | 0.00 | 0.00 | 0.00 | 96 | 1011.6 |
| 20260510083039 | 12 | 182 | 0.0 | 0.0 | 0.00 | 0.00 | 0.00 | 96 | 1011.6 |
| 20260510081538 | 13 | 182 | 0.0 | 1.6 | 0.00 | 0.00 | 0.00 | 95 | 1011.5 |
| 20260510080041 | 13 | 182 | 0.0 | 1.6 | 0.00 | 0.00 | 0.00 | 95 | 1011.4 |
| 20260510074533 | 13 | 182 | 0.0 | 0.0 | 0.00 | 0.00 | 0.00 | 94 | 1011.4 |
| 20260510073030 | 14 | 182 | 0.0 | 0.0 | 0.00 | 0.00 | 0.00 | 94 | 1011.3 |
| 20260510071529 | 14 | 182 | 0.0 | 0.0 | 0.00 | 0.00 | 0.00 | 93 | 1011.3 |
| 20260510070029 | 15 | 182 | 0.0 | 0.0 | 0.00 | 0.00 | 0.00 | 92 | 1011.3 |
| 20260510064528 | 15 | 182 | 0.0 | 3.2 | 0.00 | 0.00 | 0.00 | 92 | 1011.4 |
| 20260510063021 | 16 | 181 | 0.0 | 1.6 | 0.00 | 0.00 | 0.00 | 90 | 1011.3 |
| 20260510061520 | 16 | 181 | 0.0 | 3.2 | 0.00 | 0.00 | 0.00 | 90 | 1011.5 |
| 20260510060019 | 16 | 206 | 0.0 | 4.8 | 0.00 | 0.00 | 0.00 | 89 | 1011.6 |
| 20260510054521 | 17 | 227 | 0.0 | 4.8 | 0.00 | 0.00 | 0.00 | 89 | 1011.5 |
| 20260510053017 | 17 | 165 | 0.0 | 6.4 | 0.00 | 0.00 | 0.00 | 88 | 1011.7 |
| 20260510051517 | 17 | 228 | 0.0 | 4.8 | 0.00 | 0.00 | 0.00 | 87 | 1011.7 |
| 20260510050020 | 17 | 181 | 1.6 | 6.4 | 0.00 | 0.00 | 0.00 | 87 | 1011.6 |
| 20260510044515 | 17 | 182 | 0.0 | 3.2 | 0.00 | 0.00 | 0.00 | 87 | 1011.6 |
| 20260510043019 | 16 | 176 | 0.0 | 3.2 | 0.00 | 0.00 | 0.00 | 88 | 1011.7 |
| 20260510041507 | 16 | 187 | 0.0 | 0.0 | 0.00 | 0.00 | 0.00 | 89 | 1011.5 |
| 20260510040008 | 15 | 187 | 0.0 | 0.0 | 0.00 | 0.00 | 0.00 | 88 | 1011.4 |
| 20260510034504 | 16 | 187 | 0.0 | 0.0 | 0.00 | 0.00 | 0.00 | 86 | 1011.4 |
| 20260510033003 | 16 | 187 | 0.0 | 0.0 | 0.00 | 0.00 | 0.00 | 85 | 1011.4 |
| 20260510031503 | 16 | 187 | 0.0 | 0.0 | 0.00 | 0.00 | 0.00 | 85 | 1011.2 |
| 20260510030004 | 16 | 187 | 0.0 | 0.0 | 0.00 | 0.00 | 0.00 | 83 | 1011.1 |
| 20260510024501 | 16 | 187 | 0.0 | 3.2 | 0.00 | 0.00 | 0.00 | 83 | 1010.9 |
| 20260510023001 | 16 | 187 | 0.0 | 0.0 | 0.00 | 0.00 | 0.00 | 83 | 1011.1 |
| 20260510021502 | 17 | 187 | 0.0 | 0.0 | 0.00 | 0.00 | 0.00 | 83 | 1010.9 |
| 20260510020001 | 17 | 187 | 0.0 | 0.0 | 0.00 | 0.00 | 0.00 | 82 | 1010.5 |
| 20260510014604 | 17 | 187 | 0.0 | 0.0 | 0.00 | 0.00 | 0.00 | 81 | 1010.1 |
| 20260510014501 | 17 | 187 | 0.0 | 0.0 | 0.00 | 0.00 | 0.00 | 81 | 1010.1 |
| 20260510013059 | 17 | 187 | 0.0 | 0.0 | 0.00 | 0.00 | 0.00 | 80 | 1010.1 |
| 20260510011600 | 18 | 187 | 0.0 | 0.0 | 0.00 | 0.00 | 0.00 | 79 | 1010.0 |
| 20260510010136 | 18 | 187 | 0.0 | 0.0 | 0.00 | 0.00 | 0.00 | 76 | 1009.7 |
| 20260510004600 | 19 | 187 | 0.0 | 1.6 | 0.00 | 0.00 | 0.00 | 75 | 1009.5 |
| 20260510003100 | 19 | 187 | 0.0 | 0.0 | 0.00 | 0.00 | 0.00 | 73 | 1009.3 |
| 20260510001604 | 20 | 187 | 0.0 | 0.0 | 0.00 | 0.00 | 0.00 | 71 | 1009.2 |
| 20260510000057 | 21 | 187 | 0.0 | 1.6 | 0.00 | 0.00 | 0.00 | 68 | 1009.0 |
| 20260509234628 | 22 | 187 | 0.0 | 1.6 | 0.00 | 0.00 | 0.00 | 64 | 1008.8 |
| 20260509233055 | 22 | 187 | 0.0 | 1.6 | 0.00 | 0.00 | 0.00 | 63 | 1008.6 |
| 20260509231554 | 22 | 203 | 0.0 | 4.8 | 0.00 | 0.00 | 0.00 | 61 | 1008.8 |
| 20260509230053 | 23 | 173 | 0.0 | 4.8 | 0.00 | 0.00 | 0.00 | 60 | 1008.7 |
| 20260509224552 | 23 | 225 | 0.0 | 4.8 | 0.00 | 0.00 | 0.00 | 58 | 1008.7 |
| 20260509223052 | 23 | 203 | 1.6 | 6.4 | 0.00 | 0.00 | 0.00 | 57 | 1008.6 |
| 20260509221551 | 23 | 142 | 0.0 | 6.4 | 0.00 | 0.00 | 0.00 | 56 | 1008.6 |
| 20260509220050 | 23 | 155 | 3.2 | 9.7 | 0.00 | 0.00 | 0.00 | 56 | 1008.5 |
| 20260509214550 | 23 | 165 | 1.6 | 8.0 | 0.00 | 0.00 | 0.00 | 55 | 1008.5 |
| 20260509213050 | 24 | 175 | 1.6 | 14.5 | 0.00 | 0.00 | 0.00 | 53 | 1008.4 |
| 20260509211553 | 25 | 237 | 3.2 | 12.9 | 0.00 | 0.00 | 0.00 | 53 | 1008.3 |
| 20260509210047 | 25 | 188 | 3.2 | 16.1 | 0.00 | 0.00 | 0.00 | 52 | 1008.3 |
| 20260509204545 | 25 | 234 | 3.2 | 12.9 | 0.00 | 0.00 | 0.00 | 54 | 1008.5 |
| 20260509203100 | 23 | 260 | 1.6 | 6.4 | 0.00 | 0.00 | 0.00 | 61 | 1008.3 |
| 20260509201537 | 23 | 165 | 0.0 | 6.4 | 0.00 | 0.00 | 0.00 | 62 | 1008.6 |
| 20260509200036 | 22 | 174 | 1.6 | 9.7 | 0.00 | 0.00 | 0.00 | 61 | 1008.7 |
| 20260509194541 | 22 | 189 | 1.6 | 12.9 | 0.00 | 0.00 | 0.00 | 61 | 1009.0 |
| 20260509193033 | 22 | 167 | 1.6 | 9.7 | 0.00 | 0.00 | 0.00 | 61 | 1009.2 |
| 20260509191534 | 22 | 355 | 1.6 | 9.7 | 0.00 | 0.00 | 0.00 | 61 | 1009.3 |
| 20260509190025 | 22 | 180 | 1.6 | 8.0 | 0.00 | 0.00 | 0.00 | 60 | 1009.5 |
| 20260509183036 | 22 | 165 | 4.8 | 12.9 | 0.00 | 0.00 | 0.00 | 58 | 1009.8 |
| 20260509181532 | 22 | 208 | 3.2 | 11.3 | 0.00 | 0.00 | 0.00 | 56 | 1010.0 |
| 20260509180028 | 23 | 61 | 3.2 | 16.1 | 0.00 | 0.00 | 0.00 | 56 | 1010.1 |
| 20260509174523 | 22 | 153 | 1.6 | 16.1 | 0.00 | 0.00 | 0.00 | 59 | 1010.3 |
| 20260509173017 | 22 | 140 | 3.2 | 17.7 | 0.00 | 0.00 | 0.00 | 58 | 1010.3 |
| 20260509171517 | 23 | 194 | 4.8 | 16.1 | 0.00 | 0.00 | 0.00 | 57 | 1010.3 |
| 20260509170012 | 22 | 281 | 6.4 | 12.9 | 0.00 | 0.00 | 0.00 | 57 | 1010.5 |
| 20260509164507 | 22 | 194 | 1.6 | 6.4 | 0.00 | 0.00 | 0.00 | 61 | 1010.9 |
| 20260509163008 | 22 | 184 | 6.4 | 17.7 | 0.00 | 0.00 | 0.00 | 58 | 1011.3 |